[[{"header":{"parameterUnit":"m.s-1","parameterCategory":1,"la1":30.2991,"la2":30.254,"lo1":-89.0895,"lo2":-89.0444,"dy":0.0017,"dx":0.0017,"nx":28,"ny":28,"refTime":"2024-04-28T21:00:00:Z","depth":0,"parameterNumber":2,"parameterNumberName":"U-component_of_WINDS"},"data":[0,0,0,0,0,0,0,0,0,0,0,0,0,0,0,0,0,0,0,0,0,0,0,0,0,0,0,0,0,0,0,0,0,0,0,0,0,0,0,0,0,0,0,0,0,0,0,0,0,0,0,0,0,0,0,0,0,0,-1.3463,-1.3463,0,-1.3521,-1.3522,-1.3522,-1.354,-1.354,-1.354,-1.3539,-1.36,-1.3602,-1.3604,0,0,0,0,0,0,0,0,0,0,0,0,0,-1.3369,-1.337,-1.3463,-1.3463,-1.3464,-1.3521,-1.3522,-1.3523,-1.354,-1.354,-1.354,-1.3539,-1.36,-1.3602,-1.3604,0,0,0,0,0,0,0,0,0,0,0,0,0,-1.3416,-1.3371,-1.3463,-1.348,-1.3482,-1.3521,-1.3522,-1.3523,-1.354,-1.354,-1.354,-1.3539,-1.3599,-1.3602,-1.3604,-1.3631,0,0,-1.3613,-1.3614,0,0,0,0,0,0,0,0,-1.3414,-1.342,-1.3477,-1.3479,-1.3481,-1.3523,-1.3511,-1.3559,-1.3541,-1.3518,-1.3539,-1.3539,-1.3575,-1.358,-1.3592,-1.3633,-1.3636,-1.3613,-1.3615,-1.3616,-1.3617,0,0,0,0,0,0,0,-1.341,-1.3418,-1.3486,-1.3477,-1.348,-1.3485,-1.3492,-1.352,-1.3548,-1.352,-1.3522,-1.3528,-1.3576,-1.3589,-1.3593,-1.3637,-1.3613,-1.3616,-1.3617,-1.3619,-1.3704,-1.3705,0,0,0,0,0,0,-1.3404,-1.3415,-1.3484,-1.3488,-1.3446,-1.3487,-1.3494,-1.351,-1.3548,-1.3553,-1.3529,-1.3529,-1.3584,-1.359,-1.3595,-1.3629,-1.3616,-1.3619,-1.362,-1.3704,-1.3704,-1.3705,0,0,0,0,0,0,-1.3402,-1.341,-1.3482,-1.3452,-1.3461,-1.3489,-1.3507,-1.3511,-1.3524,-1.3554,-1.356,-1.3536,-1.3584,-1.3591,-1.3622,-1.3631,-1.362,-1.3623,-1.3703,-1.3704,-1.3705,-1.3696,0,0,0,0,0,0,-1.3399,-1.3409,-1.3419,-1.3452,-1.3463,-1.3507,-1.3507,-1.3513,-1.3529,-1.353,-1.3563,-1.3568,-1.3584,-1.3618,-1.3625,-1.3635,-1.3625,-1.3702,-1.3703,-1.3704,-1.3695,-1.3696,-1.3697,0,0,0,0,0,-1.3396,-1.3414,-1.3419,-1.3427,-1.3475,-1.3507,-1.3513,-1.3531,-1.3529,-1.354,-1.356,-1.3567,-1.3629,-1.362,-1.3629,-1.364,-1.3702,-1.3703,-1.3704,-1.3695,-1.3696,-1.3697,0,0,0,0,0,0,-1.3382,-1.3419,-1.3425,-1.3454,-1.3477,-1.351,-1.3523,-1.3532,-1.3556,-1.3556,-1.3578,-1.3585,-1.3614,-1.363,-1.362,-1.3668,-1.3666,-1.3669,-1.3656,-1.3657,-1.3658,-1.3653,-1.3627,0,0,0,0,0,-1.3382,-1.3404,-1.3435,-1.3459,-1.347,-1.3495,-1.3509,-1.3521,-1.3546,-1.3556,-1.3578,-1.3602,-1.3627,-1.3643,-1.3668,-1.3698,-1.3706,-1.371,-1.3711,-1.3712,-1.3714,-1.3731,-1.3734,-1.3709,-1.3709,-1.3709,0,0,-1.3383,-1.3406,-1.3418,-1.3456,-1.3476,-1.3499,-1.3503,-1.3527,-1.3544,-1.356,-1.359,-1.3607,-1.3636,-1.3666,-1.3681,-1.368,-1.3722,-1.3713,-1.3713,-1.3715,-1.3733,-1.3735,-1.3737,-1.371,-1.371,-1.371,0,0,-1.3396,-1.3416,-1.3437,-1.3456,-1.3486,-1.3502,-1.3508,-1.3539,-1.3551,-1.3582,-1.3594,-1.3616,-1.3658,-1.3678,-1.3694,-1.3717,-1.3724,-1.3724,-1.3728,-1.3745,-1.3747,-1.3749,-1.3757,-1.3759,-1.3726,-1.3726,-1.3726,0,-1.3393,-1.3428,-1.3447,-1.3471,-1.3487,-1.3503,-1.3525,-1.3543,-1.3579,-1.359,-1.359,-1.3644,-1.3665,-1.37,-1.3706,-1.3718,-1.3725,-1.372,-1.3745,-1.3747,-1.3749,-1.3757,-1.376,-1.3726,-1.3726,-1.3726,-1.3726,0,-1.3424,-1.3448,-1.3462,-1.3496,-1.3514,-1.3537,-1.356,-1.3577,-1.3587,-1.3604,-1.3636,-1.3661,-1.3691,-1.3701,-1.3712,-1.3738,-1.3737,-1.3741,-1.3739,-1.3751,-1.3759,-1.3762,-1.3726,-1.3726,-1.3726,-1.3726,0,0,-1.3428,-1.3474,-1.3478,-1.3494,-1.3528,-1.3548,-1.3572,-1.3601,-1.3615,-1.364,-1.3661,-1.3697,-1.3701,-1.3719,-1.3732,-1.3747,-1.3764,-1.3749,-1.375,-1.3751,-1.3795,-1.3792,-1.3795,-1.377,-1.377,-1.3771,-1.3793,0,-1.3446,-1.3489,-1.3507,-1.3542,-1.3565,-1.358,-1.3601,-1.3625,-1.3642,-1.3664,-1.3683,-1.3708,-1.3711,-1.3722,-1.3738,-1.3758,-1.3773,-1.3757,-1.379,-1.379,-1.3781,-1.3799,-1.3796,-1.3815,-1.3796,-1.3796,-1.3797,0,-1.3472,-1.3496,-1.3533,-1.3565,-1.3575,-1.3594,-1.3623,-1.3644,-1.3671,-1.3683,-1.3703,-1.3716,-1.3743,-1.374,-1.3777,-1.3766,-1.3781,-1.3793,-1.3795,-1.3798,-1.3794,-1.3803,-1.3822,-1.3824,-1.3802,-1.3801,-1.3801,0,-1.3471,-1.3514,-1.3541,-1.3555,-1.3593,-1.3605,-1.3622,-1.3649,-1.3666,-1.3692,-1.3703,-1.3732,-1.3747,-1.377,-1.379,-1.3786,-1.3826,-1.3825,-1.3836,-1.3836,-1.3843,-1.3842,-1.3864,-1.3853,-1.3853,-1.3853,-1.3853,0,-1.3488,-1.351,-1.3542,-1.3559,-1.3584,-1.3606,-1.3631,-1.3648,-1.3672,-1.3694,-1.3709,-1.3729,-1.3755,-1.3779,-1.3795,-1.3824,-1.3831,-1.3841,-1.3845,-1.384,-1.3838,-1.3849,-1.3848,-1.3854,-1.3854,-1.3854,-1.3854,0,-1.3492,-1.3514,-1.3545,-1.3579,-1.3588,-1.3605,-1.3634,-1.3652,-1.367,-1.3696,-1.3704,-1.3732,-1.3761,-1.3784,-1.3821,-1.3832,-1.3862,-1.3867,-1.3853,-1.3855,-1.3865,-1.3863,-1.3894,-1.39,-1.3885,-1.3885,-1.3885,0,-1.3501,-1.3518,-1.3554,-1.3569,-1.3585,-1.361,-1.3627,-1.3649,-1.3667,-1.37,-1.3714,-1.3743,-1.3768,-1.3813,-1.3837,-1.3866,-1.3871,-1.388,-1.3876,-1.387,-1.3871,-1.387,-1.3872,-1.3881,-1.3881,-1.3881,-1.3881,0,-1.3515,-1.3525,-1.355,-1.3578,-1.3598,-1.3621,-1.3645,-1.3657,-1.3684,-1.3703,-1.3732,-1.3751,-1.379,-1.3819,-1.385,-1.3868,-1.3879,-1.3882,-1.3886,-1.388,-1.3871,-1.3876,-1.3853,-1.3881,-1.3881,-1.3881,-1.3881,-1.3881,-1.3522,-1.3538,-1.3566,-1.3592,-1.3613,-1.3635,-1.3653,-1.3673,-1.3698,-1.373,-1.3742,-1.3772,-1.3801,-1.3844,-1.3862,-1.3887,-1.3888,-1.3894,-1.3895,-1.3896,-1.3895,-1.3868,-1.3892,-1.3892,-1.3893,-1.3893,-1.3893,0,-1.3537,-1.3555,-1.358,-1.3612,-1.3634,-1.3642,-1.3669,-1.3686,-1.3712,-1.3738,-1.3762,-1.3795,-1.3824,-1.3851,-1.3881,-1.3896,-1.3902,-1.3903,-1.3902,-1.3906,-1.3893,-1.3886,-1.3898,-1.3898,-1.3898,-1.3898,-1.3898,-1.3898,-1.3547,-1.3575,-1.3588,-1.3627,-1.3646,-1.3675,-1.369,-1.371,-1.3731,-1.3767,-1.3791,-1.3809,-1.3835,-1.3867,-1.3894,-1.3902,-1.3912,-1.3912,-1.3921,-1.3908,-1.3907,-1.3906,-1.39,-1.3914,-1.3914,-1.3932,-1.3932,-1.3932]},{"header":{"parameterUnit":"m.s-1","parameterCategory":1,"la1":30.2991,"la2":30.254,"lo1":-89.0895,"lo2":-89.0444,"dy":0.0017,"dx":0.0017,"nx":28,"ny":28,"refTime":"2024-04-28T21:00:00:Z","depth":0,"parameterNumber":3,"parameterNumberName":"V-component_of_WINDS"},"data":[0,0,0,0,0,0,0,0,0,0,0,0,0,0,0,0,0,0,0,0,0,0,0,0,0,0,0,0,0,0,0,0,0,0,0,0,0,0,0,0,0,0,0,0,0,0,0,0,0,0,0,0,0,0,0,0,0,0,3.8307,3.8308,0,3.8391,3.8392,3.8393,3.8367,3.8365,3.8363,3.8362,3.8444,3.8448,3.8452,0,0,0,0,0,0,0,0,0,0,0,0,0,3.812,3.8123,3.8307,3.8308,3.8309,3.8391,3.8392,3.8393,3.8367,3.8365,3.8363,3.8361,3.8443,3.8448,3.8452,0,0,0,0,0,0,0,0,0,0,0,0,0,3.8202,3.8125,3.8307,3.8306,3.8307,3.8391,3.8392,3.8394,3.8368,3.8365,3.8362,3.836,3.8441,3.8447,3.8453,3.8541,0,0,3.847,3.8473,0,0,0,0,0,0,0,0,3.8198,3.8209,3.8305,3.8306,3.8307,3.8366,3.8356,3.8443,3.8368,3.8344,3.8362,3.8359,3.842,3.8427,3.8449,3.8545,3.8549,3.8471,3.8474,3.8477,3.8478,0,0,0,0,0,0,0,3.8192,3.8205,3.834,3.8306,3.8308,3.83,3.8309,3.8373,3.8396,3.8346,3.8345,3.8355,3.842,3.8443,3.8451,3.855,3.8471,3.8476,3.8479,3.8482,3.8723,3.8726,0,0,0,0,0,0,3.8186,3.8201,3.8337,3.8343,3.8245,3.8306,3.8316,3.835,3.8395,3.84,3.8357,3.8354,3.8435,3.8444,3.8453,3.8561,3.8477,3.8482,3.8486,3.872,3.8724,3.8727,0,0,0,0,0,0,3.8182,3.8198,3.8334,3.8271,3.8288,3.8312,3.835,3.8353,3.8376,3.8404,3.8407,3.8377,3.8433,3.8445,3.852,3.8563,3.8485,3.849,3.8717,3.8721,3.8726,3.8775,0,0,0,0,0,0,3.8177,3.8197,3.8232,3.8272,3.8291,3.84,3.8353,3.8356,3.8387,3.8383,3.8423,3.8427,3.8432,3.8512,3.8526,3.857,3.8495,3.8713,3.8719,3.8724,3.877,3.8781,3.879,0,0,0,0,0,3.817,3.8242,3.8234,3.825,3.8336,3.8403,3.8414,3.8419,3.839,3.8425,3.8442,3.8426,3.8556,3.8519,3.8535,3.8581,3.871,3.8717,3.8724,3.8765,3.8779,3.879,0,0,0,0,0,0,3.8204,3.8247,3.8239,3.8326,3.8361,3.8398,3.8442,3.8433,3.8476,3.847,3.8473,3.8483,3.856,3.8578,3.8536,3.8669,3.8629,3.8639,3.8655,3.8668,3.8678,3.8672,3.8499,0,0,0,0,0,3.8222,3.8275,3.8308,3.8382,3.84,3.8418,3.8448,3.8449,3.8485,3.8499,3.8522,3.8557,3.8606,3.8638,3.8684,3.8772,3.878,3.8812,3.8822,3.883,3.8839,3.8887,3.8901,3.8749,3.8749,3.8749,0,0,3.8259,3.8289,3.8321,3.8389,3.8417,3.847,3.8431,3.8489,3.8528,3.8508,3.858,3.8598,3.8637,3.8719,3.8756,3.8737,3.8883,3.8838,3.8845,3.8849,3.8895,3.8909,3.8922,3.8753,3.8753,3.8752,0,0,3.8354,3.8382,3.8446,3.8475,3.8518,3.8529,3.8545,3.8584,3.8596,3.8669,3.8655,3.8701,3.8784,3.8813,3.8838,3.8944,3.8931,3.8959,3.9012,3.9059,3.9071,3.9082,3.912,3.9133,3.8968,3.8968,3.8968,0,3.8394,3.8475,3.848,3.854,3.857,3.8555,3.862,3.8647,3.8702,3.8723,3.87,3.8805,3.883,3.8919,3.8945,3.8966,3.8983,3.8955,3.9069,3.908,3.909,3.9126,3.914,3.8971,3.8971,3.897,3.897,0,3.8522,3.8578,3.8625,3.868,3.8716,3.8777,3.8791,3.8826,3.8823,3.8837,3.8912,3.8941,3.8994,3.9014,3.9012,3.9103,3.909,3.9068,3.9027,3.9108,3.9142,3.9155,3.8976,3.8974,3.8974,3.8973,0,0,3.8641,3.8699,3.8716,3.8741,3.8787,3.883,3.8891,3.8943,3.8973,3.9011,3.9062,3.9133,3.9114,3.9143,3.9144,3.9185,3.9267,3.9158,3.9159,3.9178,3.9369,3.9385,3.9401,3.9259,3.9261,3.9263,3.9366,0,3.874,3.8848,3.8855,3.8952,3.9004,3.8991,3.9044,3.9077,3.9092,3.9137,3.9152,3.9203,3.9174,3.9191,3.9231,3.9249,3.9306,3.9241,3.9305,3.9307,3.9296,3.9419,3.9436,3.9531,3.9379,3.9381,3.9383,0,3.887,3.8914,3.9017,3.9056,3.9078,3.9126,3.9174,3.9218,3.9255,3.9263,3.9296,3.9291,3.9352,3.9309,3.9393,3.935,3.9376,3.9388,3.9392,3.9398,3.935,3.9428,3.9562,3.9576,3.9404,3.9402,3.9401,0,3.8946,3.9031,3.9104,3.9126,3.9173,3.9207,3.9228,3.9263,3.9294,3.9336,3.9356,3.9404,3.9431,3.9468,3.9476,3.9444,3.956,3.9518,3.9567,3.9567,3.9593,3.9591,3.9732,3.9609,3.9609,3.9609,3.9608,0,3.9056,3.912,3.9139,3.9184,3.9255,3.9261,3.9331,3.9349,3.9381,3.9428,3.9419,3.9464,3.9471,3.9517,3.9524,3.9593,3.9604,3.9612,3.9613,3.9613,3.9612,3.963,3.9624,3.9613,3.9612,3.9611,3.961,0,3.9154,3.917,3.9248,3.9287,3.9298,3.9349,3.9381,3.9424,3.9437,3.9498,3.9512,3.9533,3.9587,3.9598,3.9662,3.9666,3.9748,3.9742,3.9736,3.9735,3.9785,3.978,3.9943,3.9964,3.9827,3.9828,3.9829,0,3.9223,3.9273,3.9317,3.9349,3.9372,3.9423,3.9455,3.9463,3.9497,3.9543,3.958,3.9633,3.9676,3.9762,3.9782,3.9831,3.9826,3.988,3.9833,3.9832,3.9827,3.9825,3.9829,3.9889,3.989,3.9891,3.9892,0,3.9345,3.9351,3.9398,3.9448,3.9487,3.9527,3.9564,3.9591,3.9603,3.9641,3.9697,3.973,3.9796,3.9848,3.9897,3.9917,3.9907,3.9907,3.9921,3.9922,3.9916,3.992,3.976,3.9903,3.9902,3.9901,3.9901,3.99,3.9431,3.9474,3.9513,3.9566,3.9595,3.963,3.9673,3.9692,3.9739,3.9794,3.9795,3.9855,3.9891,3.9956,3.9979,4.0026,4.0009,4.0029,4.0035,4.004,4.0045,3.9909,4.0035,4.0034,4.0034,4.0034,4.0033,0,3.9553,3.9577,3.9626,3.9679,3.9721,3.9709,3.975,3.9785,3.9839,3.9874,3.9917,3.998,4.0031,4.0056,4.0106,4.0139,4.0135,4.0152,4.015,4.0155,4.0056,4.0039,4.0154,4.0154,4.0154,4.0154,4.0154,4.0154,3.9621,3.9694,3.9703,3.979,3.9813,3.9874,3.9898,3.9931,3.9959,4.0031,4.0074,4.0089,4.012,4.0172,4.0219,4.0224,4.0243,4.0262,4.0266,4.0174,4.0161,4.015,4.0134,4.0266,4.0266,4.036,4.0361,4.0361]}]]